Погода в Червишеве

Россия / Тюменская область     56°56′35″N   65°25′37″E
темп.,
°C
ветер,
м/с
пор.,
м/с
влажн.,
%
обл.,
%
осадки,
мм/ч
давл.,
гПа
погр.,
м
29 июня, ср
ср2923:00+5зсз389759 0.2 1004268
02:00+7сз498778 0.0 1003544
05:00+6зсз3786100 0.1 10021033
08:00+6зсз3790100 0.2 1001858
11:00+6з3798100 1.8 1000485
14:00+7ссз61096100 2.5 10011084
17:00+6ссз51197100 3.8 1004997
20:00+8сз4119385 0.0 1004797
30 июня, чт
чт3023:00+6з3998100 0.0 1004212
02:00+7сз311915 0.0 1003270
05:00+5сз39915 0.0 1004201
08:00+11ссз48660 0.0 1005509
11:00+15ссз58483 0.0 10051436
14:00+18сз574379 0.0 10062350
17:00+15сз575673 0.0 10071098
20:00+13ссз25716 0.0 1009177
1 июля, пт
пт123:00+8сз36877 0.0 1010115
02:00+6сз389566 0.0 1011162
05:00+6зсз389399 0.0 1012181
08:00+12сз4867100 0.0 1012597
11:00+16сз5655100 0.0 10121058
14:00+16сз5652100 0.0 10121247
17:00+17сз465591 0.1 10121596
20:00+14з3874100 0.1 1012310
2 июля, сб
сб223:00+11зсз388574 0.1 1012196
02:00+11зсз2678100 0.0 1011168
05:00+11зсз2681100 0.0 1011201
08:00+13сз257199 0.0 1012423
11:00+15сз336891 0.3 1012882
14:00+17ссз235113 0.3 10121337
17:00+19с234899 0.3 10111689
20:00+15ссз247516 0.1 1011138
3 июля, вс
вс323:00+11сз118876 0.1 101111
02:00+12з2380100 0.0 101067
05:00+12сз2586100 0.0 1009155
08:00+13с3675100 0.0 1009419
11:00+17ссв356098 0.0 10081416
14:00+14ссв3681100 0.1 1008581
17:00+17ссв366033 0.3 10081164
20:00+14ссв397823 0.3 1008615